<?xml version="1.0" encoding="UTF-8" standalone="no" ?>
<gpx xmlns="http://www.topografix.com/GPX/1/1" xmlns:xsi="http://www.w3.org/2001/XMLSchema-instance" xsi:schemaLocation="http://www.topografix.com/GPX/1/1 http://www.topografix.com/GPX/1/1/gpx.xsd" version="1.1" creator="VisuGPX - https://www.visugpx.com">
  <metadata>
    <name>1.CheminPetitesBruyeres-Fuisse_RocheSolutre</name>
  </metadata>
  <trk>
    <name><![CDATA[Domaine Vincent Cornin - Roche de la Solutré-19004247]]></name>
    <extensions>
      <line xmlns="http://www.topografix.com/GPX/gpx_style/0/2">
        <color>0000FF</color>
        <width>4</width>
      </line>
    </extensions>
    <trkseg>
      <trkpt lat="46.2664" lon="4.75446">
        <ele>272</ele>
        <time>2024-05-16T15:45:29.000Z</time>
      </trkpt>
      <trkpt lat="46.26742" lon="4.7515">
        <ele>272</ele>
        <time>2024-05-16T15:46:22.000Z</time>
      </trkpt>
      <trkpt lat="46.27297" lon="4.74438">
        <ele>353</ele>
        <time>2024-05-16T15:49:16.000Z</time>
      </trkpt>
      <trkpt lat="46.27427" lon="4.73047">
        <ele>382</ele>
        <time>2024-05-16T15:53:02.000Z</time>
      </trkpt>
      <trkpt lat="46.27568" lon="4.72985">
        <ele>387</ele>
        <time>2024-05-16T15:53:37.000Z</time>
      </trkpt>
      <trkpt lat="46.27614" lon="4.72927">
        <ele>385</ele>
        <time>2024-05-16T15:53:51.000Z</time>
      </trkpt>
      <trkpt lat="46.27676" lon="4.72972">
        <ele>387</ele>
        <time>2024-05-16T15:54:07.000Z</time>
      </trkpt>
      <trkpt lat="46.27798" lon="4.72996">
        <ele>387</ele>
        <time>2024-05-16T15:54:36.000Z</time>
      </trkpt>
      <trkpt lat="46.27977" lon="4.72974">
        <ele>387</ele>
        <time>2024-05-16T15:55:18.000Z</time>
      </trkpt>
      <trkpt lat="46.28029" lon="4.72846">
        <ele>389</ele>
        <time>2024-05-16T15:55:42.000Z</time>
      </trkpt>
      <trkpt lat="46.28222" lon="4.72286">
        <ele>388</ele>
        <time>2024-05-16T15:57:23.000Z</time>
      </trkpt>
      <trkpt lat="46.28289" lon="4.71981">
        <ele>373</ele>
        <time>2024-05-16T15:58:14.000Z</time>
      </trkpt>
      <trkpt lat="46.29001" lon="4.71532">
        <ele>405</ele>
        <time>2024-05-16T16:01:16.000Z</time>
      </trkpt>
      <trkpt lat="46.29027" lon="4.7147">
        <ele>407</ele>
        <time>2024-05-16T16:01:27.000Z</time>
      </trkpt>
      <trkpt lat="46.29103" lon="4.71361">
        <ele>409</ele>
        <time>2024-05-16T16:01:52.000Z</time>
      </trkpt>
      <trkpt lat="46.29515" lon="4.71451">
        <ele>386</ele>
        <time>2024-05-16T16:03:30.000Z</time>
      </trkpt>
      <trkpt lat="46.29607" lon="4.71204">
        <ele>405</ele>
        <time>2024-05-16T16:04:15.000Z</time>
      </trkpt>
      <trkpt lat="46.29604" lon="4.71202">
        <ele>405</ele>
        <time>2024-05-16T16:04:16.000Z</time>
      </trkpt>
      <trkpt lat="46.29601" lon="4.71215">
        <ele>405</ele>
        <time>2024-05-16T16:04:18.000Z</time>
      </trkpt>
      <trkpt lat="46.29603" lon="4.71223">
        <ele>404</ele>
        <time>2024-05-16T16:04:19.000Z</time>
      </trkpt>
      <trkpt lat="46.29595" lon="4.71236">
        <ele>404</ele>
        <time>2024-05-16T16:04:22.000Z</time>
      </trkpt>
      <trkpt lat="46.29591" lon="4.71253">
        <ele>403</ele>
        <time>2024-05-16T16:04:25.000Z</time>
      </trkpt>
      <trkpt lat="46.2959" lon="4.7126">
        <ele>403</ele>
        <time>2024-05-16T16:04:26.000Z</time>
      </trkpt>
      <trkpt lat="46.29594" lon="4.71297">
        <ele>400</ele>
        <time>2024-05-16T16:04:32.000Z</time>
      </trkpt>
      <trkpt lat="46.29596" lon="4.71302">
        <ele>399</ele>
        <time>2024-05-16T16:04:33.000Z</time>
      </trkpt>
      <trkpt lat="46.29607" lon="4.71315">
        <ele>398</ele>
        <time>2024-05-16T16:04:37.000Z</time>
      </trkpt>
      <trkpt lat="46.2962" lon="4.7135">
        <ele>394</ele>
        <time>2024-05-16T16:04:43.000Z</time>
      </trkpt>
      <trkpt lat="46.29652" lon="4.71411">
        <ele>387</ele>
        <time>2024-05-16T16:04:55.000Z</time>
      </trkpt>
      <trkpt lat="46.29661" lon="4.71448">
        <ele>384</ele>
        <time>2024-05-16T16:05:02.000Z</time>
      </trkpt>
      <trkpt lat="46.29681" lon="4.71494">
        <ele>382</ele>
        <time>2024-05-16T16:05:10.000Z</time>
      </trkpt>
      <trkpt lat="46.29707" lon="4.71593">
        <ele>384</ele>
        <time>2024-05-16T16:05:28.000Z</time>
      </trkpt>
      <trkpt lat="46.29711" lon="4.71615">
        <ele>386</ele>
        <time>2024-05-16T16:05:31.000Z</time>
      </trkpt>
      <trkpt lat="46.29711" lon="4.71626">
        <ele>386</ele>
        <time>2024-05-16T16:05:33.000Z</time>
      </trkpt>
      <trkpt lat="46.29706" lon="4.7169">
        <ele>389</ele>
        <time>2024-05-16T16:05:43.000Z</time>
      </trkpt>
      <trkpt lat="46.29706" lon="4.71758">
        <ele>392</ele>
        <time>2024-05-16T16:05:54.000Z</time>
      </trkpt>
      <trkpt lat="46.29706" lon="4.71793">
        <ele>392</ele>
        <time>2024-05-16T16:06:00.000Z</time>
      </trkpt>
      <trkpt lat="46.29722" lon="4.71825">
        <ele>397</ele>
        <time>2024-05-16T16:06:06.000Z</time>
      </trkpt>
      <trkpt lat="46.29749" lon="4.71859">
        <ele>402</ele>
        <time>2024-05-16T16:06:15.000Z</time>
      </trkpt>
      <trkpt lat="46.29761" lon="4.71907">
        <ele>401</ele>
        <time>2024-05-16T16:06:23.000Z</time>
      </trkpt>
      <trkpt lat="46.2977" lon="4.71902">
        <ele>404</ele>
        <time>2024-05-16T16:06:25.000Z</time>
      </trkpt>
      <trkpt lat="46.29785" lon="4.719">
        <ele>408</ele>
        <time>2024-05-16T16:06:29.000Z</time>
      </trkpt>
      <trkpt lat="46.29797" lon="4.71893">
        <ele>413</ele>
        <time>2024-05-16T16:06:32.000Z</time>
      </trkpt>
    </trkseg>
  </trk>
  <trk>
    <name><![CDATA[Roche-Solutré | Chemin des petites bruyères - Fui-19004329]]></name>
    <extensions>
      <line xmlns="http://www.topografix.com/GPX/gpx_style/0/2">
        <color>00FF00</color>
        <width>4</width>
      </line>
    </extensions>
    <trkseg>
      <trkpt lat="46.29796" lon="4.71893">
        <ele>412</ele>
        <time>2024-05-16T16:06:32.233Z</time>
      </trkpt>
      <trkpt lat="46.29798" lon="4.71895">
        <ele>413</ele>
        <time>2024-05-16T16:06:33.233Z</time>
      </trkpt>
      <trkpt lat="46.2981" lon="4.71917">
        <ele>412</ele>
        <time>2024-05-16T16:06:37.233Z</time>
      </trkpt>
      <trkpt lat="46.29815" lon="4.71919">
        <ele>413</ele>
        <time>2024-05-16T16:06:38.233Z</time>
      </trkpt>
      <trkpt lat="46.29821" lon="4.71927">
        <ele>413</ele>
        <time>2024-05-16T16:06:40.233Z</time>
      </trkpt>
      <trkpt lat="46.29826" lon="4.71939">
        <ele>413</ele>
        <time>2024-05-16T16:06:42.233Z</time>
      </trkpt>
      <trkpt lat="46.29831" lon="4.71974">
        <ele>409</ele>
        <time>2024-05-16T16:06:48.233Z</time>
      </trkpt>
      <trkpt lat="46.29831" lon="4.72001">
        <ele>404</ele>
        <time>2024-05-16T16:06:53.233Z</time>
      </trkpt>
      <trkpt lat="46.29829" lon="4.7202">
        <ele>402</ele>
        <time>2024-05-16T16:06:56.233Z</time>
      </trkpt>
      <trkpt lat="46.29824" lon="4.72031">
        <ele>399</ele>
        <time>2024-05-16T16:06:58.233Z</time>
      </trkpt>
      <trkpt lat="46.29824" lon="4.72035">
        <ele>399</ele>
        <time>2024-05-16T16:06:58.233Z</time>
      </trkpt>
      <trkpt lat="46.29825" lon="4.72061">
        <ele>396</ele>
        <time>2024-05-16T16:07:03.233Z</time>
      </trkpt>
      <trkpt lat="46.29835" lon="4.72094">
        <ele>394</ele>
        <time>2024-05-16T16:07:08.233Z</time>
      </trkpt>
      <trkpt lat="46.29817" lon="4.72106">
        <ele>388</ele>
        <time>2024-05-16T16:07:13.233Z</time>
      </trkpt>
      <trkpt lat="46.29811" lon="4.72103">
        <ele>387</ele>
        <time>2024-05-16T16:07:15.233Z</time>
      </trkpt>
      <trkpt lat="46.29804" lon="4.72093">
        <ele>387</ele>
        <time>2024-05-16T16:07:17.233Z</time>
      </trkpt>
      <trkpt lat="46.29798" lon="4.72091">
        <ele>387</ele>
        <time>2024-05-16T16:07:18.233Z</time>
      </trkpt>
      <trkpt lat="46.29744" lon="4.72158">
        <ele>367</ele>
        <time>2024-05-16T16:07:35.233Z</time>
      </trkpt>
      <trkpt lat="46.29723" lon="4.72178">
        <ele>362</ele>
        <time>2024-05-16T16:07:41.233Z</time>
      </trkpt>
      <trkpt lat="46.29712" lon="4.72156">
        <ele>363</ele>
        <time>2024-05-16T16:07:45.233Z</time>
      </trkpt>
      <trkpt lat="46.29706" lon="4.7216">
        <ele>362</ele>
        <time>2024-05-16T16:07:47.233Z</time>
      </trkpt>
      <trkpt lat="46.29711" lon="4.72167">
        <ele>362</ele>
        <time>2024-05-16T16:07:48.233Z</time>
      </trkpt>
      <trkpt lat="46.2973" lon="4.72212">
        <ele>359</ele>
        <time>2024-05-16T16:07:57.233Z</time>
      </trkpt>
      <trkpt lat="46.29743" lon="4.72281">
        <ele>351</ele>
        <time>2024-05-16T16:08:08.233Z</time>
      </trkpt>
      <trkpt lat="46.29744" lon="4.72308">
        <ele>348</ele>
        <time>2024-05-16T16:08:13.233Z</time>
      </trkpt>
      <trkpt lat="46.2975" lon="4.72354">
        <ele>344</ele>
        <time>2024-05-16T16:08:20.233Z</time>
      </trkpt>
      <trkpt lat="46.29756" lon="4.72385">
        <ele>342</ele>
        <time>2024-05-16T16:08:26.233Z</time>
      </trkpt>
      <trkpt lat="46.29746" lon="4.72385">
        <ele>340</ele>
        <time>2024-05-16T16:08:28.233Z</time>
      </trkpt>
      <trkpt lat="46.29708" lon="4.72366">
        <ele>338</ele>
        <time>2024-05-16T16:08:37.233Z</time>
      </trkpt>
      <trkpt lat="46.297" lon="4.72364">
        <ele>337</ele>
        <time>2024-05-16T16:08:39.233Z</time>
      </trkpt>
      <trkpt lat="46.29691" lon="4.72365">
        <ele>336</ele>
        <time>2024-05-16T16:08:41.233Z</time>
      </trkpt>
      <trkpt lat="46.29664" lon="4.72377">
        <ele>332</ele>
        <time>2024-05-16T16:08:48.233Z</time>
      </trkpt>
      <trkpt lat="46.29644" lon="4.72377">
        <ele>330</ele>
        <time>2024-05-16T16:08:53.233Z</time>
      </trkpt>
      <trkpt lat="46.29612" lon="4.7237">
        <ele>327</ele>
        <time>2024-05-16T16:09:00.233Z</time>
      </trkpt>
      <trkpt lat="46.29607" lon="4.72372">
        <ele>327</ele>
        <time>2024-05-16T16:09:01.233Z</time>
      </trkpt>
      <trkpt lat="46.29596" lon="4.72383">
        <ele>325</ele>
        <time>2024-05-16T16:09:04.233Z</time>
      </trkpt>
      <trkpt lat="46.29598" lon="4.72386">
        <ele>325</ele>
        <time>2024-05-16T16:09:05.233Z</time>
      </trkpt>
      <trkpt lat="46.29575" lon="4.72418">
        <ele>320</ele>
        <time>2024-05-16T16:09:13.233Z</time>
      </trkpt>
      <trkpt lat="46.29566" lon="4.72427">
        <ele>318</ele>
        <time>2024-05-16T16:09:15.233Z</time>
      </trkpt>
      <trkpt lat="46.29564" lon="4.7243">
        <ele>317</ele>
        <time>2024-05-16T16:09:16.233Z</time>
      </trkpt>
      <trkpt lat="46.29516" lon="4.7249">
        <ele>305</ele>
        <time>2024-05-16T16:09:31.233Z</time>
      </trkpt>
      <trkpt lat="46.29464" lon="4.72549">
        <ele>298</ele>
        <time>2024-05-16T16:09:46.233Z</time>
      </trkpt>
      <trkpt lat="46.29456" lon="4.7256">
        <ele>297</ele>
        <time>2024-05-16T16:09:49.233Z</time>
      </trkpt>
      <trkpt lat="46.29454" lon="4.72566">
        <ele>296</ele>
        <time>2024-05-16T16:09:50.233Z</time>
      </trkpt>
      <trkpt lat="46.29455" lon="4.72574">
        <ele>296</ele>
        <time>2024-05-16T16:09:51.233Z</time>
      </trkpt>
      <trkpt lat="46.29451" lon="4.72584">
        <ele>295</ele>
        <time>2024-05-16T16:09:53.233Z</time>
      </trkpt>
      <trkpt lat="46.29433" lon="4.72603">
        <ele>294</ele>
        <time>2024-05-16T16:09:58.233Z</time>
      </trkpt>
      <trkpt lat="46.29425" lon="4.72621">
        <ele>293</ele>
        <time>2024-05-16T16:10:01.233Z</time>
      </trkpt>
      <trkpt lat="46.29415" lon="4.72633">
        <ele>293</ele>
        <time>2024-05-16T16:10:05.233Z</time>
      </trkpt>
      <trkpt lat="46.29406" lon="4.72638">
        <ele>295</ele>
        <time>2024-05-16T16:10:07.233Z</time>
      </trkpt>
      <trkpt lat="46.29396" lon="4.72639">
        <ele>297</ele>
        <time>2024-05-16T16:10:09.233Z</time>
      </trkpt>
      <trkpt lat="46.29362" lon="4.72638">
        <ele>304</ele>
        <time>2024-05-16T16:10:17.233Z</time>
      </trkpt>
      <trkpt lat="46.29375" lon="4.72739">
        <ele>300</ele>
        <time>2024-05-16T16:10:34.233Z</time>
      </trkpt>
      <trkpt lat="46.29381" lon="4.7276">
        <ele>299</ele>
        <time>2024-05-16T16:10:37.233Z</time>
      </trkpt>
      <trkpt lat="46.29406" lon="4.72822">
        <ele>295</ele>
        <time>2024-05-16T16:10:49.233Z</time>
      </trkpt>
      <trkpt lat="46.29412" lon="4.72869">
        <ele>292</ele>
        <time>2024-05-16T16:10:57.233Z</time>
      </trkpt>
      <trkpt lat="46.29415" lon="4.72919">
        <ele>289</ele>
        <time>2024-05-16T16:11:05.233Z</time>
      </trkpt>
      <trkpt lat="46.29428" lon="4.72996">
        <ele>288</ele>
        <time>2024-05-16T16:11:17.233Z</time>
      </trkpt>
      <trkpt lat="46.29434" lon="4.73014">
        <ele>288</ele>
        <time>2024-05-16T16:11:21.233Z</time>
      </trkpt>
      <trkpt lat="46.29441" lon="4.73028">
        <ele>289</ele>
        <time>2024-05-16T16:11:23.233Z</time>
      </trkpt>
      <trkpt lat="46.29477" lon="4.73066">
        <ele>288</ele>
        <time>2024-05-16T16:11:34.233Z</time>
      </trkpt>
      <trkpt lat="46.29493" lon="4.73099">
        <ele>289</ele>
        <time>2024-05-16T16:11:40.233Z</time>
      </trkpt>
      <trkpt lat="46.295" lon="4.73123">
        <ele>290</ele>
        <time>2024-05-16T16:11:45.233Z</time>
      </trkpt>
      <trkpt lat="46.29364" lon="4.73176">
        <ele>321</ele>
        <time>2024-05-16T16:12:17.233Z</time>
      </trkpt>
      <trkpt lat="46.29366" lon="4.73179">
        <ele>321</ele>
        <time>2024-05-16T16:12:18.233Z</time>
      </trkpt>
      <trkpt lat="46.29373" lon="4.73189">
        <ele>320</ele>
        <time>2024-05-16T16:12:20.233Z</time>
      </trkpt>
      <trkpt lat="46.29382" lon="4.73207">
        <ele>319</ele>
        <time>2024-05-16T16:12:24.233Z</time>
      </trkpt>
      <trkpt lat="46.29392" lon="4.73258">
        <ele>320</ele>
        <time>2024-05-16T16:12:33.233Z</time>
      </trkpt>
      <trkpt lat="46.29394" lon="4.73276">
        <ele>319</ele>
        <time>2024-05-16T16:12:36.233Z</time>
      </trkpt>
      <trkpt lat="46.29395" lon="4.73341">
        <ele>318</ele>
        <time>2024-05-16T16:12:46.233Z</time>
      </trkpt>
      <trkpt lat="46.29285" lon="4.73414">
        <ele>332</ele>
        <time>2024-05-16T16:13:14.233Z</time>
      </trkpt>
      <trkpt lat="46.29271" lon="4.7342">
        <ele>334</ele>
        <time>2024-05-16T16:13:18.233Z</time>
      </trkpt>
      <trkpt lat="46.29262" lon="4.73429">
        <ele>334</ele>
        <time>2024-05-16T16:13:20.233Z</time>
      </trkpt>
      <trkpt lat="46.2926" lon="4.73426">
        <ele>335</ele>
        <time>2024-05-16T16:13:21.233Z</time>
      </trkpt>
      <trkpt lat="46.29235" lon="4.73399">
        <ele>338</ele>
        <time>2024-05-16T16:13:28.233Z</time>
      </trkpt>
      <trkpt lat="46.29212" lon="4.73383">
        <ele>340</ele>
        <time>2024-05-16T16:13:34.233Z</time>
      </trkpt>
      <trkpt lat="46.29183" lon="4.7337">
        <ele>343</ele>
        <time>2024-05-16T16:13:41.233Z</time>
      </trkpt>
      <trkpt lat="46.29177" lon="4.73364">
        <ele>343</ele>
        <time>2024-05-16T16:13:43.233Z</time>
      </trkpt>
      <trkpt lat="46.29107" lon="4.73311">
        <ele>354</ele>
        <time>2024-05-16T16:14:01.233Z</time>
      </trkpt>
      <trkpt lat="46.29103" lon="4.73317">
        <ele>354</ele>
        <time>2024-05-16T16:14:03.233Z</time>
      </trkpt>
      <trkpt lat="46.29073" lon="4.73372">
        <ele>353</ele>
        <time>2024-05-16T16:14:14.233Z</time>
      </trkpt>
      <trkpt lat="46.29065" lon="4.73382">
        <ele>353</ele>
        <time>2024-05-16T16:14:17.233Z</time>
      </trkpt>
      <trkpt lat="46.2901" lon="4.7334">
        <ele>361</ele>
        <time>2024-05-16T16:14:31.233Z</time>
      </trkpt>
      <trkpt lat="46.28916" lon="4.73274">
        <ele>374</ele>
        <time>2024-05-16T16:14:55.233Z</time>
      </trkpt>
      <trkpt lat="46.28904" lon="4.73267">
        <ele>375</ele>
        <time>2024-05-16T16:14:58.233Z</time>
      </trkpt>
      <trkpt lat="46.28887" lon="4.73253">
        <ele>377</ele>
        <time>2024-05-16T16:15:03.233Z</time>
      </trkpt>
      <trkpt lat="46.28863" lon="4.73242">
        <ele>379</ele>
        <time>2024-05-16T16:15:09.233Z</time>
      </trkpt>
      <trkpt lat="46.28838" lon="4.73228">
        <ele>381</ele>
        <time>2024-05-16T16:15:15.233Z</time>
      </trkpt>
      <trkpt lat="46.28825" lon="4.73216">
        <ele>382</ele>
        <time>2024-05-16T16:15:19.233Z</time>
      </trkpt>
      <trkpt lat="46.28781" lon="4.73164">
        <ele>386</ele>
        <time>2024-05-16T16:15:32.233Z</time>
      </trkpt>
      <trkpt lat="46.28755" lon="4.7314">
        <ele>388</ele>
        <time>2024-05-16T16:15:39.233Z</time>
      </trkpt>
      <trkpt lat="46.28734" lon="4.73117">
        <ele>389</ele>
        <time>2024-05-16T16:15:45.233Z</time>
      </trkpt>
      <trkpt lat="46.28712" lon="4.73096">
        <ele>390</ele>
        <time>2024-05-16T16:15:52.233Z</time>
      </trkpt>
      <trkpt lat="46.28659" lon="4.73059">
        <ele>390</ele>
        <time>2024-05-16T16:16:05.233Z</time>
      </trkpt>
      <trkpt lat="46.2864" lon="4.73042">
        <ele>389</ele>
        <time>2024-05-16T16:16:11.233Z</time>
      </trkpt>
      <trkpt lat="46.2863" lon="4.7303">
        <ele>389</ele>
        <time>2024-05-16T16:16:14.233Z</time>
      </trkpt>
      <trkpt lat="46.28624" lon="4.73018">
        <ele>390</ele>
        <time>2024-05-16T16:16:16.233Z</time>
      </trkpt>
      <trkpt lat="46.28618" lon="4.73">
        <ele>392</ele>
        <time>2024-05-16T16:16:19.233Z</time>
      </trkpt>
      <trkpt lat="46.28587" lon="4.72932">
        <ele>400</ele>
        <time>2024-05-16T16:16:32.233Z</time>
      </trkpt>
      <trkpt lat="46.28566" lon="4.72905">
        <ele>404</ele>
        <time>2024-05-16T16:16:39.233Z</time>
      </trkpt>
      <trkpt lat="46.28563" lon="4.72901">
        <ele>405</ele>
        <time>2024-05-16T16:16:40.233Z</time>
      </trkpt>
      <trkpt lat="46.28542" lon="4.72891">
        <ele>406</ele>
        <time>2024-05-16T16:16:45.233Z</time>
      </trkpt>
      <trkpt lat="46.28475" lon="4.72881">
        <ele>408</ele>
        <time>2024-05-16T16:17:01.233Z</time>
      </trkpt>
      <trkpt lat="46.28458" lon="4.72874">
        <ele>410</ele>
        <time>2024-05-16T16:17:05.233Z</time>
      </trkpt>
      <trkpt lat="46.28393" lon="4.72862">
        <ele>414</ele>
        <time>2024-05-16T16:17:20.233Z</time>
      </trkpt>
      <trkpt lat="46.28266" lon="4.72913">
        <ele>408</ele>
        <time>2024-05-16T16:17:51.233Z</time>
      </trkpt>
      <trkpt lat="46.28172" lon="4.72943">
        <ele>401</ele>
        <time>2024-05-16T16:18:13.233Z</time>
      </trkpt>
      <trkpt lat="46.28149" lon="4.72942">
        <ele>399</ele>
        <time>2024-05-16T16:18:19.233Z</time>
      </trkpt>
      <trkpt lat="46.28066" lon="4.72883">
        <ele>392</ele>
        <time>2024-05-16T16:18:40.233Z</time>
      </trkpt>
      <trkpt lat="46.28028" lon="4.72847">
        <ele>389</ele>
        <time>2024-05-16T16:18:51.233Z</time>
      </trkpt>
      <trkpt lat="46.28002" lon="4.72898">
        <ele>388</ele>
        <time>2024-05-16T16:19:01.233Z</time>
      </trkpt>
      <trkpt lat="46.27993" lon="4.72923">
        <ele>388</ele>
        <time>2024-05-16T16:19:06.233Z</time>
      </trkpt>
      <trkpt lat="46.2798" lon="4.72971">
        <ele>387</ele>
        <time>2024-05-16T16:19:14.233Z</time>
      </trkpt>
      <trkpt lat="46.2795" lon="4.72988">
        <ele>386</ele>
        <time>2024-05-16T16:19:22.233Z</time>
      </trkpt>
      <trkpt lat="46.2791" lon="4.72996">
        <ele>385</ele>
        <time>2024-05-16T16:19:31.233Z</time>
      </trkpt>
      <trkpt lat="46.27863" lon="4.73002">
        <ele>386</ele>
        <time>2024-05-16T16:19:42.233Z</time>
      </trkpt>
      <trkpt lat="46.27839" lon="4.72998">
        <ele>387</ele>
        <time>2024-05-16T16:19:48.233Z</time>
      </trkpt>
      <trkpt lat="46.27829" lon="4.72994">
        <ele>387</ele>
        <time>2024-05-16T16:19:50.233Z</time>
      </trkpt>
      <trkpt lat="46.27804" lon="4.73001">
        <ele>387</ele>
        <time>2024-05-16T16:19:56.233Z</time>
      </trkpt>
      <trkpt lat="46.27796" lon="4.73011">
        <ele>387</ele>
        <time>2024-05-16T16:19:59.233Z</time>
      </trkpt>
      <trkpt lat="46.27782" lon="4.73042">
        <ele>384</ele>
        <time>2024-05-16T16:20:05.233Z</time>
      </trkpt>
      <trkpt lat="46.27773" lon="4.73039">
        <ele>385</ele>
        <time>2024-05-16T16:20:07.233Z</time>
      </trkpt>
      <trkpt lat="46.27676" lon="4.73045">
        <ele>385</ele>
        <time>2024-05-16T16:20:29.233Z</time>
      </trkpt>
      <trkpt lat="46.27599" lon="4.73052">
        <ele>385</ele>
        <time>2024-05-16T16:20:47.233Z</time>
      </trkpt>
      <trkpt lat="46.27514" lon="4.73084">
        <ele>383</ele>
        <time>2024-05-16T16:21:08.233Z</time>
      </trkpt>
      <trkpt lat="46.27499" lon="4.73093">
        <ele>383</ele>
        <time>2024-05-16T16:21:12.233Z</time>
      </trkpt>
      <trkpt lat="46.27496" lon="4.731">
        <ele>383</ele>
        <time>2024-05-16T16:21:13.233Z</time>
      </trkpt>
      <trkpt lat="46.27454" lon="4.73138">
        <ele>384</ele>
        <time>2024-05-16T16:21:25.233Z</time>
      </trkpt>
      <trkpt lat="46.27402" lon="4.73119">
        <ele>385</ele>
        <time>2024-05-16T16:21:37.233Z</time>
      </trkpt>
      <trkpt lat="46.27392" lon="4.73159">
        <ele>387</ele>
        <time>2024-05-16T16:21:44.233Z</time>
      </trkpt>
      <trkpt lat="46.27386" lon="4.7317">
        <ele>388</ele>
        <time>2024-05-16T16:21:46.233Z</time>
      </trkpt>
      <trkpt lat="46.27352" lon="4.73152">
        <ele>388</ele>
        <time>2024-05-16T16:21:55.233Z</time>
      </trkpt>
      <trkpt lat="46.27343" lon="4.73155">
        <ele>389</ele>
        <time>2024-05-16T16:21:57.233Z</time>
      </trkpt>
      <trkpt lat="46.27294" lon="4.73217">
        <ele>392</ele>
        <time>2024-05-16T16:22:12.233Z</time>
      </trkpt>
      <trkpt lat="46.27285" lon="4.73232">
        <ele>394</ele>
        <time>2024-05-16T16:22:15.233Z</time>
      </trkpt>
      <trkpt lat="46.2728" lon="4.73246">
        <ele>395</ele>
        <time>2024-05-16T16:22:18.233Z</time>
      </trkpt>
      <trkpt lat="46.27276" lon="4.73268">
        <ele>396</ele>
        <time>2024-05-16T16:22:21.233Z</time>
      </trkpt>
      <trkpt lat="46.27272" lon="4.73275">
        <ele>396</ele>
        <time>2024-05-16T16:22:23.233Z</time>
      </trkpt>
      <trkpt lat="46.27257" lon="4.73288">
        <ele>398</ele>
        <time>2024-05-16T16:22:27.233Z</time>
      </trkpt>
      <trkpt lat="46.27252" lon="4.73295">
        <ele>398</ele>
        <time>2024-05-16T16:22:29.233Z</time>
      </trkpt>
      <trkpt lat="46.27246" lon="4.73307">
        <ele>399</ele>
        <time>2024-05-16T16:22:31.233Z</time>
      </trkpt>
      <trkpt lat="46.27233" lon="4.73343">
        <ele>401</ele>
        <time>2024-05-16T16:22:38.233Z</time>
      </trkpt>
      <trkpt lat="46.27216" lon="4.73371">
        <ele>402</ele>
        <time>2024-05-16T16:22:44.233Z</time>
      </trkpt>
      <trkpt lat="46.2721" lon="4.73379">
        <ele>403</ele>
        <time>2024-05-16T16:22:45.233Z</time>
      </trkpt>
      <trkpt lat="46.27195" lon="4.7339">
        <ele>404</ele>
        <time>2024-05-16T16:22:49.233Z</time>
      </trkpt>
      <trkpt lat="46.27187" lon="4.734">
        <ele>405</ele>
        <time>2024-05-16T16:22:52.233Z</time>
      </trkpt>
      <trkpt lat="46.27176" lon="4.73433">
        <ele>408</ele>
        <time>2024-05-16T16:22:58.233Z</time>
      </trkpt>
      <trkpt lat="46.27172" lon="4.73426">
        <ele>408</ele>
        <time>2024-05-16T16:22:59.233Z</time>
      </trkpt>
      <trkpt lat="46.27149" lon="4.73417">
        <ele>407</ele>
        <time>2024-05-16T16:23:05.233Z</time>
      </trkpt>
      <trkpt lat="46.27105" lon="4.73405">
        <ele>404</ele>
        <time>2024-05-16T16:23:15.233Z</time>
      </trkpt>
      <trkpt lat="46.271" lon="4.73405">
        <ele>404</ele>
        <time>2024-05-16T16:23:16.233Z</time>
      </trkpt>
      <trkpt lat="46.27099" lon="4.73396">
        <ele>403</ele>
        <time>2024-05-16T16:23:18.233Z</time>
      </trkpt>
      <trkpt lat="46.27091" lon="4.73384">
        <ele>401</ele>
        <time>2024-05-16T16:23:21.233Z</time>
      </trkpt>
      <trkpt lat="46.27087" lon="4.73368">
        <ele>399</ele>
        <time>2024-05-16T16:23:23.233Z</time>
      </trkpt>
      <trkpt lat="46.27091" lon="4.73384">
        <ele>401</ele>
        <time>2024-05-16T16:23:26.233Z</time>
      </trkpt>
      <trkpt lat="46.27099" lon="4.73396">
        <ele>403</ele>
        <time>2024-05-16T16:23:29.233Z</time>
      </trkpt>
      <trkpt lat="46.27101" lon="4.73412">
        <ele>404</ele>
        <time>2024-05-16T16:23:31.233Z</time>
      </trkpt>
      <trkpt lat="46.27087" lon="4.73492">
        <ele>407</ele>
        <time>2024-05-16T16:23:45.233Z</time>
      </trkpt>
      <trkpt lat="46.27083" lon="4.73508">
        <ele>407</ele>
        <time>2024-05-16T16:23:48.233Z</time>
      </trkpt>
      <trkpt lat="46.27084" lon="4.73533">
        <ele>408</ele>
        <time>2024-05-16T16:23:52.233Z</time>
      </trkpt>
      <trkpt lat="46.27081" lon="4.73555">
        <ele>408</ele>
        <time>2024-05-16T16:23:55.233Z</time>
      </trkpt>
      <trkpt lat="46.27079" lon="4.73577">
        <ele>408</ele>
        <time>2024-05-16T16:23:59.233Z</time>
      </trkpt>
      <trkpt lat="46.27079" lon="4.7362">
        <ele>409</ele>
        <time>2024-05-16T16:24:06.233Z</time>
      </trkpt>
      <trkpt lat="46.27077" lon="4.73662">
        <ele>410</ele>
        <time>2024-05-16T16:24:12.233Z</time>
      </trkpt>
      <trkpt lat="46.2708" lon="4.7367">
        <ele>410</ele>
        <time>2024-05-16T16:24:14.233Z</time>
      </trkpt>
      <trkpt lat="46.27068" lon="4.73699">
        <ele>408</ele>
        <time>2024-05-16T16:24:19.233Z</time>
      </trkpt>
      <trkpt lat="46.27064" lon="4.737">
        <ele>407</ele>
        <time>2024-05-16T16:24:20.233Z</time>
      </trkpt>
      <trkpt lat="46.2706" lon="4.73704">
        <ele>407</ele>
        <time>2024-05-16T16:24:21.233Z</time>
      </trkpt>
      <trkpt lat="46.27056" lon="4.73712">
        <ele>406</ele>
        <time>2024-05-16T16:24:23.233Z</time>
      </trkpt>
      <trkpt lat="46.27037" lon="4.73735">
        <ele>403</ele>
        <time>2024-05-16T16:24:29.233Z</time>
      </trkpt>
      <trkpt lat="46.27025" lon="4.73758">
        <ele>400</ele>
        <time>2024-05-16T16:24:34.233Z</time>
      </trkpt>
      <trkpt lat="46.27014" lon="4.7379">
        <ele>397</ele>
        <time>2024-05-16T16:24:39.233Z</time>
      </trkpt>
      <trkpt lat="46.27019" lon="4.73801">
        <ele>397</ele>
        <time>2024-05-16T16:24:41.233Z</time>
      </trkpt>
      <trkpt lat="46.27018" lon="4.73811">
        <ele>396</ele>
        <time>2024-05-16T16:24:43.233Z</time>
      </trkpt>
      <trkpt lat="46.27016" lon="4.73813">
        <ele>396</ele>
        <time>2024-05-16T16:24:44.233Z</time>
      </trkpt>
      <trkpt lat="46.27013" lon="4.73826">
        <ele>395</ele>
        <time>2024-05-16T16:24:46.233Z</time>
      </trkpt>
      <trkpt lat="46.27006" lon="4.73831">
        <ele>394</ele>
        <time>2024-05-16T16:24:48.233Z</time>
      </trkpt>
      <trkpt lat="46.27011" lon="4.73831">
        <ele>394</ele>
        <time>2024-05-16T16:24:49.233Z</time>
      </trkpt>
      <trkpt lat="46.27018" lon="4.73841">
        <ele>395</ele>
        <time>2024-05-16T16:24:51.233Z</time>
      </trkpt>
      <trkpt lat="46.27061" lon="4.7387">
        <ele>397</ele>
        <time>2024-05-16T16:25:02.233Z</time>
      </trkpt>
      <trkpt lat="46.27033" lon="4.73943">
        <ele>389</ele>
        <time>2024-05-16T16:25:16.233Z</time>
      </trkpt>
      <trkpt lat="46.27031" lon="4.73955">
        <ele>387</ele>
        <time>2024-05-16T16:25:18.233Z</time>
      </trkpt>
      <trkpt lat="46.27032" lon="4.73961">
        <ele>387</ele>
        <time>2024-05-16T16:25:19.233Z</time>
      </trkpt>
      <trkpt lat="46.27021" lon="4.73964">
        <ele>386</ele>
        <time>2024-05-16T16:25:21.233Z</time>
      </trkpt>
      <trkpt lat="46.27034" lon="4.73981">
        <ele>385</ele>
        <time>2024-05-16T16:25:25.233Z</time>
      </trkpt>
      <trkpt lat="46.27049" lon="4.74011">
        <ele>382</ele>
        <time>2024-05-16T16:25:31.233Z</time>
      </trkpt>
      <trkpt lat="46.27058" lon="4.74038">
        <ele>378</ele>
        <time>2024-05-16T16:25:36.233Z</time>
      </trkpt>
      <trkpt lat="46.27079" lon="4.74054">
        <ele>376</ele>
        <time>2024-05-16T16:25:42.233Z</time>
      </trkpt>
      <trkpt lat="46.27135" lon="4.74111">
        <ele>372</ele>
        <time>2024-05-16T16:25:58.233Z</time>
      </trkpt>
      <trkpt lat="46.27151" lon="4.74136">
        <ele>370</ele>
        <time>2024-05-16T16:26:03.233Z</time>
      </trkpt>
      <trkpt lat="46.27142" lon="4.74135">
        <ele>369</ele>
        <time>2024-05-16T16:26:05.233Z</time>
      </trkpt>
      <trkpt lat="46.27105" lon="4.74123">
        <ele>367</ele>
        <time>2024-05-16T16:26:14.233Z</time>
      </trkpt>
      <trkpt lat="46.27074" lon="4.74117">
        <ele>366</ele>
        <time>2024-05-16T16:26:21.233Z</time>
      </trkpt>
      <trkpt lat="46.27049" lon="4.74121">
        <ele>365</ele>
        <time>2024-05-16T16:26:27.233Z</time>
      </trkpt>
      <trkpt lat="46.27021" lon="4.74135">
        <ele>363</ele>
        <time>2024-05-16T16:26:34.233Z</time>
      </trkpt>
      <trkpt lat="46.27003" lon="4.74151">
        <ele>360</ele>
        <time>2024-05-16T16:26:39.233Z</time>
      </trkpt>
      <trkpt lat="46.26942" lon="4.7419">
        <ele>358</ele>
        <time>2024-05-16T16:26:55.233Z</time>
      </trkpt>
      <trkpt lat="46.26864" lon="4.74249">
        <ele>350</ele>
        <time>2024-05-16T16:27:15.233Z</time>
      </trkpt>
      <trkpt lat="46.26877" lon="4.74359">
        <ele>332</ele>
        <time>2024-05-16T16:27:33.233Z</time>
      </trkpt>
      <trkpt lat="46.2684" lon="4.74364">
        <ele>332</ele>
        <time>2024-05-16T16:27:42.233Z</time>
      </trkpt>
      <trkpt lat="46.26835" lon="4.74366">
        <ele>332</ele>
        <time>2024-05-16T16:27:43.233Z</time>
      </trkpt>
      <trkpt lat="46.26831" lon="4.74371">
        <ele>332</ele>
        <time>2024-05-16T16:27:44.233Z</time>
      </trkpt>
      <trkpt lat="46.26834" lon="4.74379">
        <ele>331</ele>
        <time>2024-05-16T16:27:46.233Z</time>
      </trkpt>
      <trkpt lat="46.26836" lon="4.74397">
        <ele>328</ele>
        <time>2024-05-16T16:27:49.233Z</time>
      </trkpt>
      <trkpt lat="46.26829" lon="4.74468">
        <ele>320</ele>
        <time>2024-05-16T16:28:00.233Z</time>
      </trkpt>
      <trkpt lat="46.2683" lon="4.7448">
        <ele>319</ele>
        <time>2024-05-16T16:28:02.233Z</time>
      </trkpt>
      <trkpt lat="46.26822" lon="4.7448">
        <ele>319</ele>
        <time>2024-05-16T16:28:04.233Z</time>
      </trkpt>
      <trkpt lat="46.26816" lon="4.74484">
        <ele>318</ele>
        <time>2024-05-16T16:28:06.233Z</time>
      </trkpt>
      <trkpt lat="46.26813" lon="4.74491">
        <ele>317</ele>
        <time>2024-05-16T16:28:07.233Z</time>
      </trkpt>
      <trkpt lat="46.26786" lon="4.74572">
        <ele>306</ele>
        <time>2024-05-16T16:28:22.233Z</time>
      </trkpt>
      <trkpt lat="46.26768" lon="4.74636">
        <ele>300</ele>
        <time>2024-05-16T16:28:33.233Z</time>
      </trkpt>
      <trkpt lat="46.26762" lon="4.74782">
        <ele>291</ele>
        <time>2024-05-16T16:28:56.233Z</time>
      </trkpt>
      <trkpt lat="46.26749" lon="4.74922">
        <ele>283</ele>
        <time>2024-05-16T16:29:19.233Z</time>
      </trkpt>
      <trkpt lat="46.26661" lon="4.75141">
        <ele>268</ele>
        <time>2024-05-16T16:30:00.233Z</time>
      </trkpt>
      <trkpt lat="46.26659" lon="4.75156">
        <ele>268</ele>
        <time>2024-05-16T16:30:03.233Z</time>
      </trkpt>
      <trkpt lat="46.26698" lon="4.75188">
        <ele>269</ele>
        <time>2024-05-16T16:30:13.233Z</time>
      </trkpt>
      <trkpt lat="46.2672" lon="4.75189">
        <ele>271</ele>
        <time>2024-05-16T16:30:18.233Z</time>
      </trkpt>
      <trkpt lat="46.26735" lon="4.75194">
        <ele>272</ele>
        <time>2024-05-16T16:30:22.233Z</time>
      </trkpt>
      <trkpt lat="46.26734" lon="4.7523">
        <ele>273</ele>
        <time>2024-05-16T16:30:28.233Z</time>
      </trkpt>
      <trkpt lat="46.26672" lon="4.75336">
        <ele>269</ele>
        <time>2024-05-16T16:30:50.233Z</time>
      </trkpt>
      <trkpt lat="46.2666" lon="4.75354">
        <ele>268</ele>
        <time>2024-05-16T16:30:54.233Z</time>
      </trkpt>
      <trkpt lat="46.26653" lon="4.75358">
        <ele>268</ele>
        <time>2024-05-16T16:30:56.233Z</time>
      </trkpt>
      <trkpt lat="46.26624" lon="4.75369">
        <ele>267</ele>
        <time>2024-05-16T16:31:03.233Z</time>
      </trkpt>
      <trkpt lat="46.26606" lon="4.75381">
        <ele>267</ele>
        <time>2024-05-16T16:31:07.233Z</time>
      </trkpt>
      <trkpt lat="46.26597" lon="4.75396">
        <ele>267</ele>
        <time>2024-05-16T16:31:11.233Z</time>
      </trkpt>
      <trkpt lat="46.26595" lon="4.75448">
        <ele>270</ele>
        <time>2024-05-16T16:31:19.233Z</time>
      </trkpt>
      <trkpt lat="46.2664" lon="4.75445">
        <ele>272</ele>
        <time>2024-05-16T16:31:30.233Z</time>
      </trkpt>
    </trkseg>
  </trk>
</gpx>